User: anonymous   Login
Location: ??
(35.4032°N, 139.3073°E)
Time: 18:17:14
(UTC+00:00)
Language:

SJ 16-02 - Orbit

View from above orbital plane
View from above orbital plane
View from above satellite
View from above satellite

Ground track
Ground track

The orbit data is extracted from the following two-line orbital elements,

1 41634U 16043A   24165.89511959  .00001891  00000-0  20228-3 0  9993
2 41634  75.0010 223.1991 0008021  12.4815 347.6569 14.89312510431802
Epoch (UTC): 13 June 2024 21:28:58
Eccentricity: 0.0008021
inclination: 75.0010°
perigee height: 594 km
apogee height: 605 km
right ascension of ascending node: 223.1991°
argument of perigee: 12.4815°
revolutions per day: 14.89312510
mean anomaly at epoch: 347.6569°
orbit number at epoch: 43180

The dashed part of the orbit path shows where the satellite is in the earth's shadow,  

DLR